Weather History for St. Joseph, MO

Change the Weather History Date:

Saturday, May 25, 2013

  Actual Average Record
Temperature  
Mean Temperature 75 °F 68 °F  
Max Temperature 87 °F 79 °F 98 °F (1967)
Min Temperature 63 °F 57 °F 36 °F (1925)
Degree Days  
Heating Degree Days 0 2  
Month to date heating degree days 166 105  
Since 1 July heating degree days 5599 5443  
Cooling Degree Days 10 4  
Month to date cooling degree days 65 60  
Year to date cooling degree days 81 81  
Growing Degree Days 24 (Base 50)    
Moisture  
Dew Point 56 °F    
Average Humidity 55    
Maximum Humidity 68    
Minimum Humidity 42    
Precipitation  
Precipitation T in 0.16 in 1.66 in (1937)
Month to date precipitation 1.89 4.43  
Year to date precipitation 8.40 11.96  
Sea Level Pressure  
Sea Level Pressure 30.07 in    
Wind  
Wind Speed 13 mph (South)    
Max Wind Speed 26 mph    
Max Gust Speed 33 mph    
Visibility 10 miles    
Events Rain    
T = Trace of Precipitation, MM = Missing Value Source: NWS Daily Summary

Daily Weather History Graph

Daily Weather History Graph

Search for Another Location

Airport:

Trip Planner

Search our weather history database for the weather conditions in past years. The results will help you decide how hot, cold, wet, or windy it might be!

Date:

Astronomy

May. 25, 2013 Rise Set
Actual Time 5:57 AM CDT 8:36 PM CDT
Civil Twilight 5:25 AM CDT 9:08 PM CDT
Nautical Twilight 4:46 AM CDT 9:47 PM CDT
Astronomical Twilight 4:02 AM CDT 10:32 PM CDT
Moon 9:25 PM CDT (5/25) 6:24 AM CDT (5/25)
Length of Visible Light 15h 42m
Length of Day
14h 39m
Full, 100% of the Moon is Illuminated
May 25
Full
May 31
Last Quarter
Jun 8
New
Jun 16
First Quarter
Jun 23
Full

Hourly Weather History & Observations

Time (CDT) Temp. Heat Index Dew Point Humidity Pressure Visibility Wind Dir Wind Speed Gust Speed Precip Events Conditions
12:53 AM 63.0 °F - 44.1 °F 50% 30.15 in 10.0 mi ESE 5.8 mph - N/A   Mostly Cloudy
1:53 AM 63.0 °F - 45.0 °F 52% 30.13 in 10.0 mi SE 13.8 mph 18.4 mph N/A   Overcast
2:53 AM 64.0 °F - 45.0 °F 50% 30.12 in 10.0 mi SSE 9.2 mph - N/A   Overcast
3:53 AM 64.0 °F - 46.0 °F 52% 30.13 in 10.0 mi SSE 9.2 mph - N/A   Overcast
4:53 AM 63.0 °F - 46.9 °F 56% 30.10 in 10.0 mi SSE 10.4 mph - N/A   Mostly Cloudy
5:53 AM 64.0 °F - 50.0 °F 60% 30.09 in 10.0 mi South 11.5 mph - N/A   Mostly Cloudy
6:53 AM 66.0 °F - 54.0 °F 65% 30.10 in 10.0 mi South 11.5 mph - N/A   Overcast
7:16 AM 66.2 °F - 53.6 °F 64% 30.11 in 10.0 mi South 13.8 mph - N/A   Overcast
7:49 AM 66.2 °F - 55.4 °F 68% 30.12 in 10.0 mi WSW 11.5 mph - N/A   Overcast
7:53 AM 66.0 °F - 55.9 °F 70% 30.11 in 10.0 mi WSW 10.4 mph - 0.00 in Rain Light Rain
8:53 AM 66.9 °F - 57.0 °F 70% 30.12 in 10.0 mi SSW 8.1 mph - 0.00 in   Overcast
9:46 AM 69.8 °F - 57.2 °F 64% 30.13 in 10.0 mi SSW 11.5 mph - N/A   Mostly Cloudy
9:53 AM 71.1 °F - 59.0 °F 66% 30.12 in 10.0 mi SSW 11.5 mph - N/A   Mostly Cloudy
10:53 AM 73.9 °F - 61.0 °F 64% 30.10 in 10.0 mi SSW 11.5 mph - N/A   Clear
11:53 AM 77.0 °F - 61.0 °F 58% 30.08 in 10.0 mi SSW 12.7 mph - N/A   Clear
12:53 PM 82.0 °F 82.7 °F 61.0 °F 49% 30.04 in 10.0 mi South 19.6 mph - N/A   Clear
1:53 PM 82.9 °F 83.3 °F 61.0 °F 47% 30.02 in 10.0 mi SSW 23.0 mph 27.6 mph N/A   Partly Cloudy
2:53 PM 84.0 °F 84.4 °F 61.0 °F 46% 30.01 in 10.0 mi South 21.9 mph 26.5 mph N/A   Partly Cloudy
3:53 PM 84.9 °F 84.8 °F 60.1 °F 43% 29.99 in 10.0 mi South 19.6 mph 27.6 mph N/A   Partly Cloudy
4:53 PM 86.0 °F 85.7 °F 60.1 °F 41% 29.99 in 10.0 mi SSW 20.7 mph 26.5 mph N/A   Clear
5:53 PM 84.9 °F 85.0 °F 61.0 °F 44% 29.99 in 10.0 mi SSW 13.8 mph 23.0 mph N/A   Scattered Clouds
6:53 PM 82.0 °F 82.7 °F 61.0 °F 49% 29.98 in 10.0 mi South 18.4 mph 21.9 mph N/A   Partly Cloudy
7:53 PM 80.1 °F 81.1 °F 61.0 °F 52% 29.99 in 10.0 mi SSE 8.1 mph - N/A   Mostly Cloudy
8:53 PM 77.0 °F - 61.0 °F 58% 29.99 in 10.0 mi SE 6.9 mph - N/A   Scattered Clouds
9:53 PM 75.9 °F - 62.1 °F 62% 30.02 in 10.0 mi SSE 6.9 mph - N/A   Overcast
10:53 PM 73.0 °F - 61.0 °F 66% 30.03 in 10.0 mi East 6.9 mph - N/A   Mostly Cloudy
11:53 PM 71.1 °F - 61.0 °F 70% 30.03 in 10.0 mi ESE 8.1 mph - N/A   Mostly Cloudy